FW8282 Weather Reports


Display with metric or nautical units.
time (UTC)temp
F
wind
direction
speed
MPH
gust
MPH
rain 1hr
in
rain 24hr
in
rain mn
in
humidity
%
barometer
mb
20260906212438 91 229 0.0 0.0 0.00 0.37 0.37 73 1009.6
20260906211934 90 7 0.0 0.0 0.00 0.37 0.37 75 1009.7
20260906211428 91 250 0.0 0.0 0.00 0.37 0.37 74 1009.6
20260906210923 91 261 0.0 0.0 0.00 0.37 0.37 72 1009.7
20260906210419 92 245 0.0 0.0 0.00 0.37 0.37 71 1009.8
20260906205913 91 273 0.0 0.0 0.00 0.37 0.37 74 1009.7
20260906205409 90 258 0.0 0.0 0.00 0.37 0.37 77 1009.7
20260906204905 91 236 0.0 0.0 0.00 0.37 0.37 76 1009.7
20260906204404 90 167 0.0 0.0 0.00 0.37 0.37 79 1009.7
20260906203903 89 166 0.0 0.0 0.00 0.37 0.37 80 1010.0
20260906203358 89 155 0.0 0.0 0.00 0.37 0.37 82 1009.8
20260906202856 89 172 0.0 0.0 0.00 0.37 0.37 81 1009.9
20260906202350 88 243 0.0 0.0 0.00 0.37 0.37 85 1009.5
20260906201849 87 185 0.0 0.0 0.00 0.37 0.37 87 1010.0
20260906201344 86 175 0.0 0.0 0.00 0.37 0.37 90 1010.2
20260906200839 84 163 0.0 0.0 0.00 0.37 0.37 92 1010.3
20260906200336 83 190 0.0 0.0 0.00 0.37 0.37 92 1010.1
20260906195830 84 148 0.0 0.0 0.00 0.37 0.37 91 1010.2
20260906195327 84 239 0.0 0.0 0.05 0.37 0.37 89 1010.0
20260906194822 84 163 0.0 0.0 0.05 0.37 0.37 86 1010.5
20260906194318 86 283 0.0 0.0 0.00 0.36 0.36 86 1010.4
20260906193813 86 33 0.0 0.0 0.00 0.36 0.36 87 1010.5
20260906193308 87 62 0.0 0.0 0.00 0.36 0.36 85 1010.4
20260906192803 88 310 0.0 0.0 0.00 0.36 0.36 82 1010.6
20260906192258 89 259 0.0 0.0 0.00 0.36 0.36 79 1010.8
20260906191756 89 253 0.0 0.0 0.00 0.36 0.36 78 1010.5
20260906191251 89 325 0.0 0.0 0.00 0.36 0.36 78 1010.8
20260906190746 89 296 0.0 0.0 0.00 0.36 0.36 77 1010.9
20260906190240 89 311 0.0 0.0 0.00 0.36 0.36 77 1011.0
20260906185739 90 354 0.0 1.0 0.00 0.36 0.36 78 1011.0
20260906185238 90 252 0.0 0.0 0.00 0.36 0.36 79 1011.0
20260906184733 89 172 0.0 0.0 0.00 0.36 0.36 80 1010.9
20260906184228 88 238 0.0 0.0 0.00 0.36 0.36 82 1011.3
20260906183724 88 194 0.0 0.0 0.00 0.36 0.36 80 1011.0
20260906183221 88 283 0.0 0.0 0.00 0.36 0.36 81 1011.1
20260906182720 88 291 0.0 0.0 0.00 0.36 0.36 82 1011.2
20260906182216 88 269 0.0 0.0 0.00 0.36 0.36 81 1011.2
20260906181711 88 228 0.0 0.0 0.00 0.36 0.36 81 1011.2
20260906181208 88 268 0.0 0.0 0.00 0.36 0.36 82 1011.4
20260906180702 87 231 0.0 0.0 0.00 0.36 0.36 83 1011.4
20260906180157 88 286 0.0 0.0 0.00 0.36 0.36 84 1011.5
20260906175655 87 179 0.0 0.0 0.00 0.36 0.36 84 1011.2
20260906175150 87 244 0.0 0.0 0.00 0.36 0.36 84 1011.4
20260906174648 86 249 0.0 0.0 0.00 0.36 0.36 86 1011.5
20260906174143 84 320 0.0 0.0 0.00 0.36 0.36 92 1011.9
20260906173639 82 228 0.0 0.0 0.00 0.36 0.36 97 1011.7
20260906173134 82 332 0.0 0.0 0.00 0.36 0.36 99 1011.6
20260906172633 82 346 0.0 0.0 0.00 0.36 0.36 99 1011.8
20260906172129 82 329 0.0 0.0 0.00 0.36 0.36 99 1011.9
20260906171628 81 241 0.0 0.0 0.00 0.36 0.36 99 1011.8
20260906171124 82 269 0.0 0.0 0.00 0.36 0.36 99 1012.3
20260906170621 81 185 0.0 0.0 0.00 0.36 0.36 99 1012.3
20260906170119 81 163 0.0 0.0 0.00 0.36 0.36 99 1012.1
20260906165616 81 175 0.0 0.0 0.00 0.36 0.36 99 1012.1
20260906165111 80 180 0.0 0.0 0.00 0.36 0.36 99 1012.4
20260906164610 79 177 0.0 0.0 0.00 0.36 0.36 99 1012.4
20260906164106 78 184 0.0 0.0 0.00 0.36 0.36 99 1012.1
20260906163601 79 184 0.0 0.0 0.00 0.36 0.36 99 1012.3
20260906163057 79 169 0.0 0.0 0.00 0.36 0.36 99 1012.8
20260906162554 79 164 0.0 0.0 0.00 0.36 0.36 99 1012.5
20260906162049 78 169 0.0 0.0 0.00 0.36 0.36 99 1012.4
20260906161544 78 156 0.0 0.0 0.00 0.36 0.36 99 1012.4
20260906161043 77 150 0.0 0.0 0.00 0.36 0.36 98 1012.5
20260906160542 77 167 0.0 0.0 0.07 0.36 0.36 98 1012.7
20260906160040 77 181 0.0 0.0 0.19 0.36 0.36 97 1013.0
20260906155538 77 165 0.0 0.0 0.35 0.36 0.36 97 1013.0
20260906155034 77 165 0.0 0.0 1.44 0.34 0.34 96 1013.1
20260906154530 77 174 0.0 0.0 1.79 0.30 0.30 93 1013.1
20260906154028 83 268 2.0 3.0 0.59 0.10 0.10 90 1013.3
20260906153527 87 258 1.0 6.0 0.00 0.00 0.00 82 1013.0
20260906153023 88 258 0.0 0.0 0.00 0.00 0.00 80 1012.8
20260906152517 88 226 0.0 0.0 0.00 0.00 0.00 78 1012.6
20260906152016 88 168 0.0 0.0 0.00 0.00 0.00 77 1012.7
20260906151512 87 213 0.0 0.0 0.00 0.00 0.00 78 1012.5
20260906151008 87 200 0.0 0.0 0.00 0.00 0.00 80 1012.6
20260906150502 87 351 0.0 0.0 0.00 0.00 0.00 82 1012.8
20260906150001 88 251 0.0 0.0 0.00 0.00 0.00 80 1012.6
20260906145456 89 279 0.0 0.0 0.00 0.00 0.00 78 1012.7
20260906144955 88 349 0.0 0.0 0.00 0.00 0.00 79 1012.7
20260906144450 88 177 0.0 0.0 0.00 0.00 0.00 81 1012.4
20260906143946 88 258 0.0 0.0 0.00 0.00 0.00 80 1012.7
20260906143441 88 22 0.0 0.0 0.00 0.00 0.00 79 1012.6
20260906142937 86 208 0.0 0.0 0.00 0.00 0.00 82 1012.7
20260906142431 86 147 0.0 0.0 0.00 0.00 0.00 83 1012.8
20260906141926 86 157 0.0 0.0 0.00 0.00 0.00 84 1012.8
20260906141426 87 267 0.0 0.0 0.00 0.00 0.00 84 1012.8
20260906140920 86 191 0.0 0.0 0.00 0.00 0.00 86 1012.6
20260906140414 86 210 0.0 0.0 0.00 0.00 0.00 85 1012.7
20260906135912 86 196 0.0 0.0 0.00 0.00 0.00 86 1012.7
20260906135406 86 231 0.0 0.0 0.00 0.00 0.00 87 1012.9
20260906134902 86 161 0.0 0.0 0.00 0.00 0.00 88 1012.9
20260906134357 85 116 0.0 0.0 0.00 0.00 0.00 88 1012.8
20260906133852 85 201 0.0 0.0 0.00 0.00 0.00 88 1012.8
20260906133348 84 175 0.0 0.0 0.00 0.00 0.00 90 1012.7
20260906132843 84 249 0.0 0.0 0.00 0.00 0.00 91 1012.7
20260906132338 83 261 0.0 0.0 0.00 0.00 0.00 94 1013.0
20260906131834 83 159 0.0 0.0 0.00 0.00 0.00 97 1012.7
20260906131329 82 186 0.0 0.0 0.00 0.00 0.00 98 1012.8
20260906130825 81 210 0.0 0.0 0.00 0.00 0.00 99 1012.6
20260906130324 82 154 0.0 0.0 0.00 0.00 0.00 99 1012.6
20260906125823 80 147 0.0 0.0 0.00 0.00 0.00 99 1012.9
20260906125321 80 149 0.0 0.0 0.00 0.00 0.00 99 1012.8
20260906124816 79 157 0.0 0.0 0.00 0.00 0.00 99 1012.8
20260906124312 79 168 0.0 0.0 0.00 0.00 0.00 99 1012.8
20260906123811 79 157 0.0 0.0 0.00 0.00 0.00 99 1012.6
20260906123306 79 155 0.0 0.0 0.00 0.00 0.00 99 1012.5
20260906122806 78 142 0.0 0.0 0.00 0.00 0.00 99 1012.7
20260906122301 78 158 0.0 0.0 0.00 0.00 0.00 99 1012.9
20260906121757 78 158 0.0 0.0 0.00 0.00 0.00 99 1012.5
20260906121253 78 160 0.0 0.0 0.00 0.00 0.00 99 1012.1
20260906120749 78 166 0.0 0.0 0.00 0.00 0.00 99 1012.4
20260906120246 77 182 0.0 0.0 0.00 0.00 0.00 99 1012.1
20260906115741 77 184 0.0 0.0 0.00 0.00 0.00 99 1011.9
20260906115236 77 174 0.0 0.0 0.00 0.00 0.00 99 1012.3
20260906114735 77 165 0.0 0.0 0.00 0.00 0.00 99 1011.9
20260906114230 77 169 0.0 0.0 0.00 0.00 0.00 99 1012.0
20260906113726 76 169 0.0 0.0 0.00 0.00 0.00 99 1011.9
20260906113225 76 172 0.0 0.0 0.00 0.00 0.00 99 1012.0
20260906112724 76 172 0.0 0.0 0.00 0.00 0.00 99 1011.7
20260906112222 76 169 0.0 0.0 0.00 0.00 0.00 99 1011.6
20260906111721 75 176 0.0 0.0 0.00 0.00 0.00 99 1011.4
20260906111215 75 175 0.0 0.0 0.00 0.00 0.00 99 1011.5
20260906110711 76 169 0.0 0.0 0.00 0.00 0.00 99 1011.5
20260906110206 76 172 0.0 0.0 0.00 0.00 0.00 99 1011.5
20260906105659 75 175 0.0 0.0 0.00 0.00 0.00 99 1011.5
20260906105155 75 174 0.0 0.0 0.00 0.00 0.00 99 1011.5
20260906104655 75 172 0.0 0.0 0.00 0.00 0.00 99 1011.5
20260906104149 75 176 0.0 0.0 0.00 0.00 0.00 99 1011.1
20260906103647 76 169 0.0 0.0 0.00 0.00 0.00 99 1011.0
20260906103142 76 176 0.0 0.0 0.00 0.00 0.00 99 1011.0
20260906102637 76 175 0.0 0.0 0.00 0.00 0.00 99 1010.9
20260906102132 76 170 0.0 0.0 0.00 0.00 0.00 99 1010.9
20260906101631 76 169 0.0 0.0 0.00 0.00 0.00 99 1010.7
20260906101131 76 176 0.0 0.0 0.00 0.00 0.00 99 1010.7
20260906100627 76 176 0.0 0.0 0.00 0.00 0.00 99 1010.9
20260906100122 76 176 0.0 0.0 0.00 0.00 0.00 99 1010.9
20260906095622 76 176 0.0 0.0 0.00 0.00 0.00 99 1010.8
20260906095118 76 172 0.0 0.0 0.00 0.00 0.00 99 1010.6
20260906094616 76 176 0.0 0.0 0.00 0.00 0.00 99 1010.6
20260906094112 76 176 0.0 0.0 0.00 0.00 0.00 99 1010.7
20260906093608 76 176 0.0 0.0 0.00 0.00 0.00 99 1010.8
20260906093103 76 172 0.0 0.0 0.00 0.00 0.00 99 1010.4
20260906092558 76 172 0.0 0.0 0.00 0.00 0.00 99 1010.5
20260906092053 76 169 0.0 0.0 0.00 0.00 0.00 99 1010.4
20260906091549 76 169 0.0 0.0 0.00 0.00 0.00 99 1010.4
20260906091046 76 161 0.0 0.0 0.00 0.00 0.00 99 1010.3
20260906090545 76 168 0.0 0.0 0.00 0.00 0.00 99 1010.6
20260906090040 76 170 0.0 0.0 0.00 0.00 0.00 99 1010.4
20260906085539 76 169 0.0 0.0 0.00 0.00 0.00 99 1010.4
20260906085039 76 161 0.0 0.0 0.00 0.00 0.00 99 1010.2
20260906084533 76 169 0.0 0.0 0.00 0.00 0.00 99 1010.1
20260906084032 76 159 0.0 0.0 0.00 0.00 0.00 99 1010.1
20260906083528 76 172 0.0 0.0 0.00 0.00 0.00 99 1010.1
20260906083027 76 161 0.0 0.0 0.00 0.00 0.00 99 1010.1
20260906082522 76 161 0.0 0.0 0.00 0.00 0.00 99 1010.0
20260906082018 76 172 0.0 0.0 0.00 0.00 0.00 99 1010.2
20260906081514 76 172 0.0 0.0 0.00 0.00 0.00 99 1010.1
20260906081009 77 179 0.0 0.0 0.00 0.00 0.00 99 1010.0
20260906080506 77 179 0.0 0.0 0.00 0.00 0.00 99 1010.1
20260906080001 77 179 0.0 0.0 0.00 0.00 0.00 99 1010.1
20260906075455 77 179 0.0 0.0 0.00 0.00 0.00 99 1010.1
20260906074951 77 179 0.0 0.0 0.00 0.00 0.00 99 1010.1
20260906074445 77 179 0.0 0.0 0.00 0.00 0.00 99 1010.0
20260906073943 77 179 0.0 0.0 0.00 0.00 0.00 99 1010.2
20260906073438 77 176 0.0 0.0 0.00 0.00 0.00 99 1009.9
20260906072935 77 176 0.0 0.0 0.00 0.00 0.00 99 1010.2
20260906072430 77 176 0.0 0.0 0.00 0.00 0.00 99 1010.2
20260906071926 77 176 0.0 0.0 0.00 0.00 0.00 99 1010.3
20260906071421 77 176 0.0 0.0 0.00 0.00 0.00 99 1010.5
20260906070917 77 169 0.0 0.0 0.00 0.00 0.00 99 1010.4
20260906070413 77 172 0.0 0.0 0.00 0.00 0.00 99 1010.5
20260906065909 77 179 0.0 0.0 0.00 0.00 0.00 99 1010.6
20260906065403 77 176 0.0 0.0 0.00 0.00 0.00 99 1010.7
20260906064859 77 170 0.0 0.0 0.00 0.00 0.00 99 1010.7
20260906064355 77 176 0.0 0.0 0.00 0.00 0.00 99 1011.0
20260906063854 77 174 0.0 0.0 0.00 0.00 0.00 99 1011.0
20260906063350 77 172 0.0 0.0 0.00 0.00 0.00 99 1011.0
20260906062845 77 169 0.0 0.0 0.00 0.00 0.00 99 1011.1
20260906062344 77 161 0.0 0.0 0.00 0.00 0.00 99 1011.1
20260906061840 77 161 0.0 0.0 0.00 0.00 0.00 99 1011.3
20260906061336 77 165 0.0 0.0 0.00 0.00 0.00 99 1011.6
20260906060830 77 162 0.0 0.0 0.00 0.00 0.00 99 1011.5
20260906060329 77 162 0.0 0.0 0.00 0.00 0.00 99 1011.6
20260906055824 77 165 0.0 0.0 0.00 0.00 0.00 99 1011.6
20260906055320 77 165 0.0 0.0 0.00 0.00 0.00 99 1011.7
20260906054815 77 165 0.0 0.0 0.00 0.00 0.00 99 1011.6
20260906054310 78 165 0.0 0.0 0.00 0.00 0.00 99 1011.6
20260906053806 78 165 0.0 0.0 0.00 0.00 0.00 99 1011.7
20260906053301 78 169 0.0 0.0 0.00 0.00 0.00 99 1011.6
20260906052756 78 171 0.0 0.0 0.00 0.00 0.00 99 1011.8
20260906052253 78 162 0.0 0.0 0.00 0.00 0.00 99 1011.6
20260906051750 78 158 0.0 0.0 0.00 0.00 0.00 99 1011.8
20260906051249 78 157 0.0 0.0 0.00 0.00 0.00 99 1011.9
20260906050744 78 158 0.0 0.0 0.00 0.00 0.00 99 1011.9
20260906050239 78 162 0.0 0.0 0.00 0.00 0.00 99 1011.8
20260906045738 78 159 0.0 0.0 0.00 0.00 0.00 99 1011.6
20260906045233 78 160 0.0 0.0 0.00 0.00 0.00 99 1011.9
20260906044729 78 159 0.0 0.0 0.00 0.00 0.00 99 1012.4
20260906044224 78 153 0.0 0.0 0.00 0.00 0.00 99 1012.3
20260906043720 78 158 0.0 0.0 0.00 0.00 0.00 99 1012.1
20260906043216 78 166 0.0 0.0 0.00 0.00 0.00 99 1012.1
20260906042715 78 153 0.0 0.0 0.00 0.00 0.00 99 1012.1
20260906042214 78 157 0.0 0.0 0.00 0.00 0.00 99 1012.1
20260906041710 78 157 0.0 0.0 0.00 0.00 0.00 99 1012.4
20260906041205 78 163 0.0 0.0 0.00 0.00 0.00 99 1012.1
20260906040701 78 155 0.0 0.0 0.00 0.00 0.00 99 1012.3
20260906040156 78 153 0.0 0.0 0.00 0.00 0.00 99 1012.5
20260906035651 78 153 0.0 0.0 0.00 0.00 0.00 99 1012.5
20260906035147 78 146 0.0 0.0 0.00 0.00 0.00 99 1012.3
20260906034642 78 154 0.0 0.0 0.00 0.00 0.00 99 1012.3
20260906034142 78 136 0.0 0.0 0.00 0.00 0.00 99 1012.0
20260906033637 78 152 0.0 0.0 0.00 0.00 0.00 99 1011.9
20260906033132 79 152 0.0 0.0 0.00 0.00 0.00 99 1012.0
20260906032629 79 142 0.0 0.0 0.00 0.00 0.00 99 1011.9
20260906032128 78 153 0.0 0.0 0.00 0.00 0.00 99 1011.9
20260906031624 79 152 0.0 0.0 0.00 0.00 0.00 99 1011.9
20260906031119 79 154 0.0 0.0 0.00 0.00 0.00 99 1012.1
20260906030618 79 154 0.0 0.0 0.00 0.00 0.00 98 1012.4
20260906030114 79 152 0.0 0.0 0.00 0.00 0.00 98 1012.3
20260906025613 79 155 0.0 0.0 0.00 0.00 0.00 98 1012.3
20260906025112 79 155 0.0 0.0 0.00 0.00 0.00 98 1012.0
20260906024607 79 154 0.0 0.0 0.00 0.00 0.00 98 1012.1
20260906024101 79 152 0.0 0.0 0.00 0.00 0.00 98 1012.7
20260906023557 79 151 0.0 0.0 0.00 0.00 0.00 98 1012.4
20260906023052 79 150 0.0 0.0 0.00 0.00 0.00 97 1012.3
20260906022547 79 150 0.0 0.0 0.00 0.00 0.00 97 1012.3
20260906022043 79 151 0.0 0.0 0.00 0.00 0.00 97 1012.3
20260906021538 79 151 0.0 0.0 0.00 0.00 0.00 97 1012.4
20260906021037 80 150 0.0 0.0 0.00 0.00 0.00 97 1012.1
20260906020536 80 143 0.0 0.0 0.00 0.00 0.00 96 1012.3
20260906020031 80 153 0.0 0.0 0.00 0.00 0.00 96 1012.3
20260906015530 80 150 0.0 0.0 0.00 0.00 0.00 96 1011.9
20260906015030 80 150 0.0 0.0 0.00 0.00 0.00 95 1012.1
20260906014525 80 136 0.0 0.0 0.00 0.00 0.00 95 1011.9
20260906014021 80 152 0.0 0.0 0.00 0.00 0.00 94 1011.9
20260906013516 80 153 0.0 0.0 0.00 0.00 0.00 93 1011.6
20260906013011 80 152 0.0 0.0 0.00 0.00 0.00 93 1011.7
20260906012506 81 152 0.0 0.0 0.00 0.00 0.00 93 1011.9
20260906012005 81 139 0.0 0.0 0.00 0.00 0.00 93 1011.6
20260906011501 82 140 0.0 0.0 0.00 0.00 0.00 92 1011.7
20260906010950 82 153 0.0 0.0 0.00 0.00 0.00 90 1011.7
20260906010446 82 153 0.0 0.0 0.00 0.00 0.00 90 1011.4
20260906005943 82 154 0.0 0.0 0.00 0.00 0.00 89 1011.5
20260906005441 82 164 0.0 0.0 0.00 0.00 0.00 89 1011.5
20260906004940 82 151 0.0 0.0 0.00 0.00 0.00 88 1011.3
20260906004434 82 160 0.0 0.0 0.00 0.00 0.00 89 1011.2
20260906003930 82 141 0.0 0.0 0.00 0.00 0.00 89 1011.4
20260906003430 83 130 0.0 0.0 0.00 0.00 0.00 89 1011.3
20260906002926 83 161 0.0 0.0 0.00 0.00 0.00 88 1011.2
20260906002425 84 158 0.0 0.0 0.00 0.00 0.00 86 1011.4
20260906001920 84 189 0.0 0.0 0.00 0.00 0.00 85 1011.4
20260906001416 84 228 0.0 0.0 0.00 0.00 0.00 85 1011.4
20260906000911 84 186 0.0 0.0 0.00 0.00 0.00 85 1011.3
20260906000406 84 45 0.0 0.0 0.00 0.00 0.00 86 1011.3
20260905235901 85 264 0.0 0.0 0.00 0.00 0.00 85 1011.5
20260905235355 85 223 0.0 0.0 0.00 0.00 0.00 85 1011.7
20260905234850 85 172 0.0 0.0 0.00 0.00 0.00 84 1011.6
20260905234346 85 177 0.0 0.0 0.00 0.00 0.00 83 1011.5
20260905233841 86 166 0.0 0.0 0.00 0.00 0.00 82 1011.4
20260905233336 86 260 0.0 0.0 0.00 0.00 0.00 81 1011.6
20260905232835 86 295 0.0 0.0 0.00 0.00 0.00 80 1011.2
20260905232331 87 220 0.0 0.0 0.00 0.00 0.00 80 1011.3
20260905231827 87 273 0.0 0.0 0.00 0.00 0.00 79 1011.5
20260905231321 87 209 0.0 0.0 0.00 0.00 0.00 78 1011.5
20260905230818 89 178 0.0 0.0 0.00 0.00 0.00 76 1011.6
20260905230316 89 251 0.0 0.0 0.00 0.00 0.00 75 1011.4
20260905225815 89 297 3.0 3.0 0.00 0.00 0.00 74 1011.7
20260905225310 89 256 0.0 0.0 0.00 0.00 0.00 73 1011.5
20260905224810 90 258 1.0 3.0 0.00 0.00 0.00 73 1011.6
20260905224306 91 213 0.0 0.0 0.00 0.00 0.00 71 1011.7
20260905223801 90 241 0.0 0.0 0.00 0.00 0.00 73 1011.8
20260905223258 90 288 1.0 2.0 0.00 0.00 0.00 72 1011.5
20260905222753 90 263 3.0 6.0 0.00 0.00 0.00 72 1011.3
20260905222252 91 269 0.0 0.0 0.00 0.00 0.00 72 1011.4
20260905221748 90 242 2.0 5.0 0.00 0.00 0.00 72 1011.4
20260905221245 91 260 4.0 6.0 0.00 0.00 0.00 71 1011.3
20260905220740 91 266 0.0 0.0 0.00 0.00 0.00 71 1011.6
20260905220237 91 274 0.0 1.0 0.00 0.00 0.00 71 1011.4
20260905215736 91 268 0.0 0.0 0.00 0.00 0.00 71 1011.4
20260905215231 91 240 0.0 0.0 0.00 0.00 0.00 71 1011.5
20260905214727 90 277 1.0 1.0 0.00 0.00 0.00 70 1011.4
20260905214222 91 288 4.0 7.0 0.00 0.00 0.00 70 1011.3
20260905213718 91 264 2.0 3.0 0.00 0.00 0.00 69 1011.2
20260905213214 91 276 0.0 1.0 0.00 0.00 0.00 70 1011.3
20260905212709 91 254 3.0 5.0 0.00 0.00 0.00 70 1011.3